(186295) = 2000 TN53 = 2002 CM74

Discovered at Socorro on 2002-02-07 by LINEAR.

Orbit

Orbit type: Main Belt

Note: WebGL enabled browser required.

epoch2024-03-31.0
epoch JD2460400.5
perihelion date2023-01-30.15250
perihelion JD2459974.65250
argument of perihelion (°)40.56554
ascending node (°)53.87844
inclination (°)1.54405
eccentricity0.1292777
perihelion distance (AU)2.6736192
Tisserand w.r.t. Jupiter3.2
ΔV w.r.t. Earth (km/sec)10.2
semimajor axis (AU)3.0705762
mean anomaly (°)78.00606
mean daily motion (°/day)0.18317840
aphelion distance (AU)3.468
period (years)5.38
P-vector [x]-0.07729357
P-vector [y]0.90762570
P-vector [z]0.41260307
Q-vector [x]-0.99677076
Q-vector [y]-0.07938195
Q-vector [z]-0.01210577
absolute magnitude16.12
phase slope0.15
uncertainty0
referenceE2024-GI3
observations used461
oppositions15
arc length (days)8594
first opposition used2000
last opposition used2024
residual rms (arc-secs)0.66
perturbers coarse indicatorM-v
perturbers precise indicator003Ek
first observation date used2000-10-01.0
last observation date used2024-04-12.0
computer nameMPCLINUX
JD of orbit computation2456847.693740
perihelion JD uncertainty (days)1.2310E-04
argument of perihelion uncertainty (°)1.6488E-04
ascending node uncertainty (°)1.6293E-04
inclination uncertainty (°)4.9522E-06
eccentricity uncertainty 4.0220E-08
perihelion distance uncertainty (AU)1.2224E-07
Minimum Orbit Intersection Distances (in AU)
for orbit epoch: 2460400.5, reference: E2024-GI3
Mercury2.36379
Venus1.95417
Earth1.69106
Mars1.06748
Jupiter1.70235
Saturn6.36707
Uranus15.4334
Neptune26.7735

Observations

458 total observations over interval: 2000 10 01.33627 – 2024 03 17.524689
These data are available for download (format description).

Date (UT) J2000 RA J2000 Dec Magn Location Ref
2000 10 01.33627 02 00 20.73 +11 00 06.5 19.9   704 – Lincoln Laboratory ETS, New Mexico MPS 21488
2000 10 01.35135 02 00 20.18 +11 00 04.3 20.7   704 – Lincoln Laboratory ETS, New Mexico MPS 21488
2000 10 01.36643 02 00 19.46 +11 00 00.6 20.4   704 – Lincoln Laboratory ETS, New Mexico MPS 21488
2000 10 01.38151 02 00 18.91 +10 59 58.5 20.4   704 – Lincoln Laboratory ETS, New Mexico MPS 21488
2000 10 01.39659 02 00 18.48 +10 59 55.7 20.5   704 – Lincoln Laboratory ETS, New Mexico MPS 21488
2000 10 03.39921 01 59 01.43 +10 53 29.6 21.1 V 691 – Steward Observatory, Kitt Peak-Spacewatch MPS 21488
2000 10 03.42065 01 59 00.51 +10 53 24.9 21.5 V 691 – Steward Observatory, Kitt Peak-Spacewatch MPS 21488
2000 10 03.44233 01 58 59.66 +10 53 20.5 21.8 V 691 – Steward Observatory, Kitt Peak-Spacewatch MPS 21488
2002 01 20.49818 09 52 32.62 +15 22 07.9 20.5 V 291 – LPL/Spacewatch II MPS 50230
2002 01 20.51965 09 52 31.82 +15 22 12.5 20.6 V 291 – LPL/Spacewatch II MPS 50230
2002 01 20.54011 09 52 31.02 +15 22 17.3 20.5 V 291 – LPL/Spacewatch II MPS 50230
2002 02 05.36234 09 40 38.80 +16 28 10.6 20.4   644 – Palomar Mountain/NEAT MPS 52648
2002 02 05.37379 09 40 38.21 +16 28 13.1 20.4   644 – Palomar Mountain/NEAT MPS 52648
2002 02 05.38914 09 40 37.41 +16 28 17.0 20.4   644 – Palomar Mountain/NEAT MPS 52648
2002 02 07.31653 09 39 00.48 +16 36 31.5 19.4   704 – Lincoln Laboratory ETS, New Mexico MPS 50230
2002 02 07.33093 09 38 59.73 +16 36 35.6 20.0   704 – Lincoln Laboratory ETS, New Mexico MPS 50230
2002 02 07.34533 09 38 59.02 +16 36 38.7 20.2   704 – Lincoln Laboratory ETS, New Mexico MPS 50230
2002 02 07.35975 09 38 58.28 +16 36 43.4 19.5   704 – Lincoln Laboratory ETS, New Mexico MPS 50230
2002 02 07.37433 09 38 57.50 +16 36 46.6 19.7   704 – Lincoln Laboratory ETS, New Mexico MPS 50230
2002 02 10.24319 09 36 32.14 +16 48 51.7 19.8   704 – Lincoln Laboratory ETS, New Mexico MPS 50230
2002 02 10.25733 09 36 31.42 +16 48 54.3 19.9   704 – Lincoln Laboratory ETS, New Mexico MPS 50230
2002 02 10.27438 09 36 30.54 +16 48 58.4 19.9   704 – Lincoln Laboratory ETS, New Mexico MPS 50230
2002 02 10.29009 09 36 29.65 +16 49 02.7 20.0   704 – Lincoln Laboratory ETS, New Mexico MPS 50230
2002 02 10.30468 09 36 29.00 +16 49 05.6 20.0   704 – Lincoln Laboratory ETS, New Mexico MPS 50230
2002 02 12.30543 09 34 47.28 +16 57 19.8 19.2   704 – Lincoln Laboratory ETS, New Mexico MPS 50230
2002 02 12.31956 09 34 46.52 +16 57 23.6 20.2   704 – Lincoln Laboratory ETS, New Mexico MPS 50230
2002 02 12.33370 09 34 45.77 +16 57 26.3 20.4   704 – Lincoln Laboratory ETS, New Mexico MPS 50230
2002 02 12.34786 09 34 44.94 +16 57 30.3 19.8   704 – Lincoln Laboratory ETS, New Mexico MPS 50230
2002 03 14.14345 09 14 46.77 +18 18 56.8 20.0   704 – Lincoln Laboratory ETS, New Mexico MPS 52648
2002 03 14.15615 09 14 46.44 +18 18 57.8 19.6   704 – Lincoln Laboratory ETS, New Mexico MPS 52648
2002 03 14.16891 09 14 46.12 +18 18 57.8 19.9   704 – Lincoln Laboratory ETS, New Mexico MPS 52648
2005 08 28.40124 00 01 42.64 -01 59 11.3 20.7 V 691 – Steward Observatory, Kitt Peak-Spacewatch MPS 140163
2005 08 28.41859 00 01 42.03 -01 59 15.6 20.7 V 691 – Steward Observatory, Kitt Peak-Spacewatch MPS 140163
2005 08 28.43937 00 01 41.29 -01 59 20.3 20.8 V 691 – Steward Observatory, Kitt Peak-Spacewatch MPS 140163
2005 09 01.38874 23 59 19.10 -02 15 13.8 20.6 V 691 – Steward Observatory, Kitt Peak-Spacewatch MPS 140163
2005 09 01.40621 23 59 18.40 -02 15 18.2 20.6 V 691 – Steward Observatory, Kitt Peak-Spacewatch MPS 140163
2005 09 01.42364 23 59 17.72 -02 15 22.4 20.7 V 691 – Steward Observatory, Kitt Peak-Spacewatch MPS 140163
2005 09 11.35939 23 52 28.61 -02 59 39.2 20.6 V 691 – Steward Observatory, Kitt Peak-Spacewatch MPS 141678
2005 09 11.37672 23 52 27.81 -02 59 44.0 20.5 V 691 – Steward Observatory, Kitt Peak-Spacewatch MPS 141678
2005 09 11.39414 23 52 27.01 -02 59 48.8 20.3 V 691 – Steward Observatory, Kitt Peak-Spacewatch MPS 141678
2005 09 26.84877 23 40 47.33 -04 11 31.7 19.8 V A50 – Andrushivka Astronomical Observatory MPS 163233
2005 09 26.85627 23 40 46.98 -04 11 33.7 19.5 V A50 – Andrushivka Astronomical Observatory MPS 163233
2005 10 28.18949 23 23 31.30 -05 43 00.0 19.9 V G96 – Mt. Lemmon Survey MPS 145998
2005 10 28.19520 23 23 31.16 -05 43 00.5 20.6 V G96 – Mt. Lemmon Survey MPS 145998
2005 10 28.20074 23 23 31.05 -05 43 00.5 21.0 V G96 – Mt. Lemmon Survey MPS 145998
2005 10 28.20649 23 23 30.94 -05 43 01.1 20.9 V G96 – Mt. Lemmon Survey MPS 145998
2006 12 09.46830 07 02 58.03 +24 11 50.6 20.1 V 691 – Steward Observatory, Kitt Peak-Spacewatch MPS 191949
2006 12 09.48564 07 02 57.33 +24 11 51.8 20.3 V 691 – Steward Observatory, Kitt Peak-Spacewatch MPS 191949
2006 12 09.50297 07 02 56.63 +24 11 53.7 20.4 V 691 – Steward Observatory, Kitt Peak-Spacewatch MPS 191949
2006 12 13.20486 07 00 25.41 +24 18 25.8 20.7 R H07 – 7300 Observatory, Cloudcroft MPS 191949
2006 12 13.20863 07 00 25.19 +24 18 26.0 20.4 R H07 – 7300 Observatory, Cloudcroft MPS 191949
2006 12 13.21240 07 00 25.08 +24 18 27.5 21.4 R H07 – 7300 Observatory, Cloudcroft MPS 191949
2006 12 13.21618 07 00 24.86 +24 18 28.0 19.9 R H07 – 7300 Observatory, Cloudcroft MPS 191949
2006 12 21.23780 06 53 59.45 +24 32 43.4 19.4 V 691 – Steward Observatory, Kitt Peak-Spacewatch MPS 191949
2006 12 21.25515 06 53 58.48 +24 32 46.0 20.0 V 691 – Steward Observatory, Kitt Peak-Spacewatch MPS 191949
2006 12 21.27252 06 53 57.55 +24 32 47.8 20.0 V 691 – Steward Observatory, Kitt Peak-Spacewatch MPS 191949
2006 12 22.24989 06 53 06.40 +24 34 30.3 19.4   704 – Lincoln Laboratory ETS, New Mexico MPS 191949
2006 12 22.26251 06 53 05.61 +24 34 31.4 19.8   704 – Lincoln Laboratory ETS, New Mexico MPS 191949
2006 12 22.27510 06 53 05.03 +24 34 32.3 19.9   704 – Lincoln Laboratory ETS, New Mexico MPS 191949
2006 12 22.28782 06 53 04.24 +24 34 33.4 19.5   704 – Lincoln Laboratory ETS, New Mexico MPS 191949
2006 12 22.30044 06 53 03.62 +24 34 35.0 19.6   704 – Lincoln Laboratory ETS, New Mexico MPS 191949
2006 12 25.23277 06 50 26.08 +24 39 32.0 20.1 V 691 – Steward Observatory, Kitt Peak-Spacewatch MPS 191949
2006 12 25.25009 06 50 25.12 +24 39 33.9 19.8 V 691 – Steward Observatory, Kitt Peak-Spacewatch MPS 191949
2006 12 25.26743 06 50 24.14 +24 39 35.8 19.7 V 691 – Steward Observatory, Kitt Peak-Spacewatch MPS 191949
2007 01 10.26271 06 35 36.55 +25 01 09.1 19.2 C 704 – Lincoln Laboratory ETS, New Mexico MPS 291406
2007 01 10.29232 06 35 34.94 +25 01 12.8 20.4 C 704 – Lincoln Laboratory ETS, New Mexico MPS 291406
2007 01 10.30799 06 35 34.18 +25 01 12.2 19.5 C 704 – Lincoln Laboratory ETS, New Mexico MPS 291406
2008 04 03.35174 13 16 54.01 -06 40 29.8 20.1 V G96 – Mt. Lemmon Survey MPS 244590
2008 04 03.35771 13 16 53.72 -06 40 28.2 20.3 V G96 – Mt. Lemmon Survey MPS 244590
2008 04 03.36365 13 16 53.47 -06 40 26.7 20.4 V G96 – Mt. Lemmon Survey MPS 244591
2008 04 03.36958 13 16 53.18 -06 40 25.3 20.2 V G96 – Mt. Lemmon Survey MPS 244591
2008 04 25.13970 13 00 39.76 -05 10 23.3 20.8 V 691 – Steward Observatory, Kitt Peak-Spacewatch MPS 247736
2008 04 25.16072 13 00 38.90 -05 10 18.9 20.3 V 691 – Steward Observatory, Kitt Peak-Spacewatch MPS 247736
2008 04 25.17920 13 00 38.16 -05 10 14.5 20.6 V 691 – Steward Observatory, Kitt Peak-Spacewatch MPS 247736
2011 10 22.41775 04 04 13.00 +20 38 46.3 20.3 V 691 – Steward Observatory, Kitt Peak-Spacewatch MPS 397835
2011 10 22.43553 04 04 12.47 +20 38 45.7 20.3 V 691 – Steward Observatory, Kitt Peak-Spacewatch MPS 397835
2011 10 22.45334 04 04 11.93 +20 38 44.6 20.3 V 691 – Steward Observatory, Kitt Peak-Spacewatch MPS 397835
2011 11 03.37106 03 57 02.23 +20 25 08.0 20.0 V 691 – Steward Observatory, Kitt Peak-Spacewatch MPS 399718
2011 11 03.38886 03 57 01.41 +20 25 06.5 20.1 V 691 – Steward Observatory, Kitt Peak-Spacewatch MPS 399718
2011 11 03.40668 03 57 00.62 +20 25 04.9 19.8 V 691 – Steward Observatory, Kitt Peak-Spacewatch MPS 399718
2011 11 16.31898 03 46 29.24 +20 00 55.0 19.3 V G96 – Mt. Lemmon Survey MPS 400900
2011 11 16.32737 03 46 28.77 +20 00 53.7 19.1 V G96 – Mt. Lemmon Survey MPS 400900
2011 11 16.33585 03 46 28.30 +20 00 52.7 19.2 V G96 – Mt. Lemmon Survey MPS 400900
